sat.trackr.live / text

‹ back to catalog

TIANQI-28

NORAD 59912 · 2024-102D

PAYLOAD ACTIVE UNKNOWN

§ Identity

Operator
Country
PRC
Launch date
2024-05-29
Launch site
YSLA
Launch vehicle
Mass (kg)
RCS (m²)

External: N2YO · Heavens-Above · Gunter

§ Orbital elements

Epoch: 2026-05-25T01:41:14.040096Z

Period
102.92 min
Inclination
44.9802°
Eccentricity
0.0011177
Mean motion
13.99158821 rev/d
Perigee alt
888.6 km
Apogee alt
904.8 km
Semi-major
7,274.8 km
B*
1.4762e-4
RAAN
4.5340°
Arg perigee
139.6343°
Mean anomaly
220.5320°
Rev number
10,166

§ Raw data

TIANQI-281 59912U 24102D   26145.07030139  .00000087  00000+0  14762-3 0  99932 59912  44.9802   4.5340 0011177 139.6343 220.5320 13.99158821101662

JSON: /api/v1/satellites/59912 · /tle

For live sub-satellite position, see the globe view (requires WebGL).

§ Visibility from observer

Set your observer location to see the next 7 days of passes ≥ 10°. The values pass through the URL so the page stays shareable.

No JS? Fill the form by hand. The geolocation button needs JavaScript.